Madison, MN

7:29 AM CST on December 13, 2019 (GMT -0600)
Madison-Lac Qui Parle County

Weather History for KDXX - November, 2019

Change the Weather History Date:

Thursday, November 21, 2019

  Actual Average (KAQP) Record (KAQP)
Temperature  
Mean Temperature 31 °F -  
Max Temperature 39 °F 34 °F 62 °F (2012)
Min Temperature 23 °F 18 °F -4 °F (1996)
Degree Days  
Heating Degree Days 34    
Moisture  
Dew Point 25 °F    
Average Humidity 84    
Maximum Humidity 100    
Minimum Humidity 69    
Precipitation  
Precipitation 0.00 in - - ()
Sea Level Pressure  
Sea Level Pressure 30.08 in    
Wind  
Wind Speed 21 mph (NNW)    
Max Wind Speed 32 mph    
Max Gust Speed 41 mph    
Visibility 9 miles    
Events Rain , Snow    
Averages and records for this station are not official NWS values.
T = Trace of Precipitation, MM = Missing Value Source: NWS Daily Summary

Daily Weather History Graph

Daily Weather History Graph

Search for Another Location

Airport or City:

Astronomy

Nov. 21, 2019 Rise Set
Actual Time 7:30 AM CST 4:50 PM CST
Civil Twilight 6:57 AM CST 5:22 PM CST
Nautical Twilight 6:21 AM CST 5:58 PM CST
Astronomical Twilight 5:46 AM CST 6:33 PM CST
Moon 1:07 AM CST (11/21) 2:38 PM CST (11/21)
Length of Visible Light 10h 25m
Length of Day
9h 20m
Waning Crescent, 29% of the Moon is Illuminated
Nov 21
Waning Crescent
Nov 26
New
Dec 4
First Quarter
Dec 11
Full
Dec 18
Last Quarter

Hourly Weather History & Observations

Time (CST) Temp. Windchill Dew Point Humidity Pressure Visibility Wind Dir Wind Speed Gust Speed Precip Events Conditions
12:15 AM 39.2 °F 29.6 °F 37.4 °F 93% 29.79 in 4.0 mi North 19.6 mph 24.2 mph N/A   Overcast
12:35 AM 39.2 °F 29.8 °F 37.4 °F 93% 29.80 in 4.0 mi NNW 18.4 mph 21.9 mph N/A   Overcast
12:55 AM 37.4 °F 27.2 °F 37.4 °F 100% 29.80 in 5.0 mi NNW 19.6 mph 28.8 mph N/A   Overcast
12:56 AM 37.4 °F 26.9 °F 37.4 °F 100% 29.81 in 5.0 mi NNW 20.7 mph 28.8 mph N/A   Overcast
1:15 AM 37.4 °F 26.6 °F 37.4 °F 100% 29.80 in 4.0 mi NNW 21.9 mph 29.9 mph N/A   Overcast
1:16 AM 37.4 °F 26.4 °F 37.4 °F 100% 29.80 in 4.0 mi NNW 23.0 mph 29.9 mph N/A   Overcast
1:35 AM 37.4 °F 26.9 °F 35.6 °F 93% 29.80 in 3.0 mi NNW 20.7 mph 27.6 mph N/A Rain Light Rain
1:36 AM 37.4 °F 26.9 °F 35.6 °F 93% 29.80 in 3.0 mi NNW 20.7 mph 27.6 mph N/A Rain Light Rain
1:55 AM 37.4 °F 26.9 °F 35.6 °F 93% 29.80 in 4.0 mi NNW 20.7 mph 28.8 mph N/A Rain Light Rain
1:56 AM 37.4 °F 26.6 °F 35.6 °F 93% 29.81 in 4.0 mi NNW 21.9 mph 28.8 mph N/A Rain Light Rain
2:15 AM 37.4 °F 26.6 °F 35.6 °F 93% 29.81 in 10.0 mi NNW 21.9 mph 29.9 mph N/A   Overcast
2:35 AM 37.4 °F 25.9 °F 35.6 °F 93% 29.82 in 10.0 mi NNW 25.3 mph 28.8 mph N/A   Overcast
2:55 AM 37.4 °F 25.9 °F 35.6 °F 93% 29.83 in 5.0 mi NNW 25.3 mph 31.1 mph N/A   Overcast
3:15 AM 37.4 °F 25.6 °F 35.6 °F 93% 29.83 in 3.0 mi NNW 26.5 mph 33.4 mph N/A Rain Light Rain
3:35 AM 35.6 °F 23.0 °F 35.6 °F 100% 29.84 in 4.0 mi NNW 27.6 mph 33.4 mph N/A Rain Light Rain
3:55 AM 35.6 °F 22.7 °F 35.6 °F 100% 29.84 in 4.0 mi North 28.8 mph 35.7 mph N/A   Overcast
4:15 AM 35.6 °F 23.4 °F 33.8 °F 93% 29.85 in 4.0 mi NNW 25.3 mph 32.2 mph N/A Snow Light Snow
4:35 AM 35.6 °F 23.0 °F 33.8 °F 93% 29.87 in 4.0 mi NNW 27.6 mph 33.4 mph N/A   Overcast
4:55 AM 33.8 °F 20.3 °F 33.8 °F 100% 29.89 in 3.0 mi NNW 28.8 mph 35.7 mph N/A   Overcast
4:56 AM 33.8 °F 19.6 °F 33.8 °F 100% 29.89 in 3.0 mi NNW 32.2 mph 40.3 mph N/A   Overcast
5:15 AM 33.8 °F 20.5 °F 33.8 °F 100% 29.90 in 5.0 mi NNW 27.6 mph 34.5 mph N/A   Overcast
5:35 AM 32.0 °F 17.2 °F 32.0 °F 100% 29.91 in 3.0 mi NNW 32.2 mph 36.8 mph N/A   Overcast
5:36 AM 32.0 °F 17.6 °F 32.0 °F 100% 29.91 in 3.0 mi NNW 29.9 mph 36.8 mph N/A   Overcast
5:55 AM 32.0 °F 17.9 °F 30.2 °F 93% 29.92 in 7.0 mi NNW 28.8 mph 38.0 mph N/A   Overcast
5:56 AM 32.0 °F 17.9 °F 30.2 °F 93% 29.92 in 7.0 mi NNW 28.8 mph 38.0 mph N/A   Overcast
6:15 AM 30.2 °F 16.5 °F 30.2 °F 100% 29.93 in 10.0 mi NNW 24.2 mph 34.5 mph N/A   Overcast
6:35 AM 30.2 °F 15.9 °F 28.4 °F 93% 29.95 in 10.0 mi NNW 26.5 mph 36.8 mph N/A   Overcast
6:55 AM 30.2 °F 16.2 °F 28.4 °F 93% 29.97 in 10.0 mi NNW 25.3 mph 33.4 mph N/A   Overcast
7:15 AM 28.4 °F 13.3 °F 26.6 °F 93% 29.99 in 10.0 mi NNW 27.6 mph 36.8 mph N/A   Overcast
7:35 AM 28.4 °F 13.0 °F 26.6 °F 93% 30.01 in 10.0 mi NNW 28.8 mph 38.0 mph N/A   Overcast
7:55 AM 28.4 °F 12.5 °F 26.6 °F 93% 30.03 in 10.0 mi NNW 31.1 mph 41.4 mph N/A   Overcast
7:56 AM 28.4 °F 13.3 °F 26.6 °F 93% 30.03 in 10.0 mi NNW 27.6 mph 41.4 mph N/A   Overcast
8:15 AM 28.4 °F 14.7 °F 24.8 °F 86% 30.04 in 10.0 mi NNW 21.9 mph 36.8 mph N/A   Overcast
8:16 AM 28.4 °F 14.7 °F 24.8 °F 86% 30.04 in 10.0 mi NNW 21.9 mph 36.8 mph N/A   Overcast
8:35 AM 28.4 °F 13.5 °F 24.8 °F 86% 30.05 in 10.0 mi NNW 26.5 mph 31.1 mph N/A   Overcast
8:55 AM 28.4 °F 13.0 °F 24.8 °F 86% 30.06 in 10.0 mi NNW 28.8 mph 35.7 mph N/A   Overcast
8:56 AM 28.4 °F 13.8 °F 24.8 °F 86% 30.07 in 10.0 mi NNW 25.3 mph 35.7 mph N/A   Overcast
9:15 AM 28.4 °F 13.5 °F 23.0 °F 80% 30.07 in 10.0 mi NNW 26.5 mph 33.4 mph N/A   Overcast
9:16 AM 28.4 °F 13.8 °F 23.0 °F 80% 30.07 in 10.0 mi NNW 25.3 mph 33.4 mph N/A   Overcast
9:35 AM 28.4 °F 14.1 °F 24.8 °F 86% 30.08 in 10.0 mi NNW 24.2 mph 33.4 mph N/A   Overcast
9:36 AM 28.4 °F 14.1 °F 24.8 °F 86% 30.08 in 10.0 mi NNW 24.2 mph 33.4 mph N/A   Overcast
9:55 AM 26.6 °F 12.7 °F 24.8 °F 93% 30.09 in 10.0 mi NNW 20.7 mph 32.2 mph N/A   Overcast
9:56 AM 26.6 °F 12.0 °F 24.8 °F 93% 30.09 in 10.0 mi NNW 23.0 mph 32.2 mph N/A   Overcast
10:15 AM 26.6 °F 10.3 °F 23.0 °F 86% 30.11 in 10.0 mi NNW 29.9 mph 35.7 mph N/A   Overcast
10:35 AM 26.6 °F 11.1 °F 23.0 °F 86% 30.11 in 10.0 mi NNW 26.5 mph 34.5 mph N/A   Overcast
10:55 AM 26.6 °F 10.6 °F 21.2 °F 80% 30.12 in 10.0 mi NNW 28.8 mph 32.2 mph N/A   Overcast
10:56 AM 26.6 °F 11.1 °F 21.2 °F 80% 30.12 in 10.0 mi NNW 26.5 mph 32.2 mph N/A   Overcast
11:15 AM 26.6 °F 11.4 °F 21.2 °F 80% 30.12 in 10.0 mi NNW 25.3 mph 32.2 mph N/A   Overcast
11:35 AM 26.6 °F 12.0 °F 21.2 °F 80% 30.11 in 10.0 mi NNW 23.0 mph 29.9 mph N/A   Overcast
11:36 AM 26.6 °F 12.0 °F 23.0 °F 86% 30.11 in 10.0 mi NNW 23.0 mph 29.9 mph N/A   Overcast
11:55 AM 26.6 °F 12.7 °F 23.0 °F 86% 30.11 in 10.0 mi NNW 20.7 mph - N/A   Overcast
12:15 PM 26.6 °F 13.1 °F 21.2 °F 80% 30.11 in 10.0 mi NNW 19.6 mph 31.1 mph N/A   Overcast
12:16 PM 26.6 °F 12.0 °F 21.2 °F 80% 30.11 in 10.0 mi NNW 23.0 mph 31.1 mph N/A   Overcast
12:36 PM 26.6 °F 13.1 °F 21.2 °F 80% 30.11 in 10.0 mi NNW 19.6 mph 25.3 mph N/A   Overcast
12:55 PM 26.6 °F 13.1 °F 21.2 °F 80% 30.12 in 10.0 mi NNW 19.6 mph - N/A   Overcast
12:56 PM 26.6 °F 12.7 °F 21.2 °F 80% 30.12 in 10.0 mi NNW 20.7 mph - N/A   Overcast
1:15 PM 26.6 °F 13.8 °F 21.2 °F 80% 30.12 in 10.0 mi NW 17.3 mph 27.6 mph N/A   Overcast
1:16 PM 26.6 °F 13.4 °F 21.2 °F 80% 30.12 in 10.0 mi NW 18.4 mph - N/A   Overcast
1:35 PM 26.6 °F 13.4 °F 21.2 °F 80% 30.12 in 10.0 mi NW 18.4 mph - N/A   Overcast
1:36 PM 26.6 °F 14.7 °F 21.2 °F 80% 30.12 in 10.0 mi NW 15.0 mph - N/A   Overcast
1:55 PM 26.6 °F 12.7 °F 21.2 °F 80% 30.13 in 10.0 mi NNW 20.7 mph 24.2 mph N/A   Overcast
1:56 PM 26.6 °F 12.7 °F 21.2 °F 80% 30.13 in 10.0 mi NNW 20.7 mph 24.2 mph N/A   Overcast
2:15 PM 26.6 °F 12.7 °F 19.4 °F 74% 30.13 in 10.0 mi NNW 20.7 mph 25.3 mph N/A   Overcast
2:16 PM 26.6 °F 12.7 °F 19.4 °F 74% 30.13 in 10.0 mi NNW 20.7 mph 25.3 mph N/A   Overcast
2:35 PM 28.4 °F 15.8 °F 19.4 °F 69% 30.13 in 10.0 mi NW 18.4 mph 24.2 mph N/A   Overcast
2:55 PM 28.4 °F 16.6 °F 21.2 °F 74% 30.14 in 10.0 mi NW 16.1 mph 21.9 mph N/A   Overcast
2:56 PM 28.4 °F 16.2 °F 21.2 °F 74% 30.14 in 10.0 mi NW 17.3 mph 25.3 mph N/A   Overcast
3:15 PM 28.4 °F 15.8 °F 19.4 °F 69% 30.15 in 10.0 mi NW 18.4 mph 24.2 mph N/A   Mostly Cloudy
3:35 PM 28.4 °F 16.2 °F 19.4 °F 69% 30.16 in 10.0 mi NW 17.3 mph 25.3 mph N/A   Mostly Cloudy
3:55 PM 28.4 °F 16.6 °F 19.4 °F 69% 30.17 in 10.0 mi NW 16.1 mph 25.3 mph N/A   Overcast
4:15 PM 26.6 °F 14.7 °F 19.4 °F 74% 30.18 in 10.0 mi NW 15.0 mph - N/A   Overcast
4:35 PM 26.6 °F 13.4 °F 19.4 °F 74% 30.19 in 10.0 mi NNW 18.4 mph - N/A   Overcast
4:55 PM 26.6 °F 14.7 °F 19.4 °F 74% 30.21 in 10.0 mi NW 15.0 mph 25.3 mph N/A   Overcast
5:15 PM 26.6 °F 13.8 °F 19.4 °F 74% 30.21 in 10.0 mi NNW 17.3 mph 23.0 mph N/A   Overcast
5:35 PM 26.6 °F 13.8 °F 19.4 °F 74% 30.21 in 10.0 mi NNW 17.3 mph 23.0 mph N/A   Mostly Cloudy
5:55 PM 26.6 °F 14.7 °F 19.4 °F 74% 30.21 in 10.0 mi NW 15.0 mph 19.6 mph N/A   Overcast
6:15 PM 26.6 °F 15.7 °F 19.4 °F 74% 30.22 in 10.0 mi NNW 12.7 mph - N/A   Overcast
6:35 PM 26.6 °F 14.7 °F 19.4 °F 74% 30.22 in 10.0 mi NNW 15.0 mph 21.9 mph N/A   Overcast
6:55 PM 26.6 °F 16.8 °F 19.4 °F 74% 30.22 in 10.0 mi NNW 10.4 mph 18.4 mph N/A   Overcast
6:56 PM 26.6 °F 15.7 °F 19.4 °F 74% 30.22 in 10.0 mi NNW 12.7 mph 18.4 mph N/A   Overcast
7:15 PM 24.8 °F 13.4 °F 17.6 °F 74% 30.22 in 10.0 mi NNW 12.7 mph - N/A   Overcast
7:35 PM 26.6 °F 15.2 °F 19.4 °F 74% 30.23 in 10.0 mi NNW 13.8 mph - N/A   Overcast
7:55 PM 24.8 °F 12.4 °F 17.6 °F 74% 30.23 in 10.0 mi NNW 15.0 mph - N/A   Overcast
7:56 PM 24.8 °F 12.9 °F 17.6 °F 74% 30.23 in 10.0 mi NNW 13.8 mph 17.3 mph N/A   Overcast
8:15 PM 24.8 °F 14.6 °F 19.4 °F 80% 30.24 in 10.0 mi NNW 10.4 mph - N/A   Overcast
8:35 PM 24.8 °F 13.4 °F 19.4 °F 80% 30.24 in 10.0 mi NNW 12.7 mph - N/A   Overcast
8:36 PM 24.8 °F 12.9 °F 19.4 °F 80% 30.24 in 10.0 mi NNW 13.8 mph - N/A   Overcast
8:55 PM 24.8 °F 16.9 °F 19.4 °F 80% 30.24 in 10.0 mi NNW 6.9 mph - N/A   Overcast
9:15 PM 24.8 °F 17.9 °F 19.4 °F 80% 30.24 in 10.0 mi North 5.8 mph - N/A   Overcast
9:16 PM 24.8 °F 19.1 °F 19.4 °F 80% 30.24 in 10.0 mi North 4.6 mph - N/A   Overcast
9:35 PM 24.8 °F 17.9 °F 19.4 °F 80% 30.25 in 10.0 mi North 5.8 mph - N/A   Overcast
9:55 PM 24.8 °F 15.3 °F 19.4 °F 80% 30.25 in 10.0 mi North 9.2 mph - N/A   Overcast
9:56 PM 24.8 °F 14.6 °F 19.4 °F 80% 30.26 in 10.0 mi North 10.4 mph - N/A   Overcast
10:15 PM 23.0 °F 14.7 °F 19.4 °F 86% 30.26 in 10.0 mi North 6.9 mph - N/A   Overcast
10:16 PM 23.0 °F 14.7 °F 19.4 °F 86% 30.26 in 10.0 mi North 6.9 mph - N/A   Overcast
10:35 PM 23.0 °F 15.8 °F 19.4 °F 86% 30.27 in 10.0 mi North 5.8 mph - N/A   Overcast
10:55 PM 23.0 °F 15.8 °F 17.6 °F 80% 30.27 in 10.0 mi North 5.8 mph - N/A   Overcast
11:15 PM 23.0 °F 15.8 °F 17.6 °F 80% 30.27 in 10.0 mi North 5.8 mph - N/A   Overcast
11:16 PM 23.0 °F 15.8 °F 17.6 °F 80% 30.27 in 10.0 mi North 5.8 mph - N/A   Overcast
11:35 PM 23.0 °F 14.7 °F 17.6 °F 80% 30.28 in 10.0 mi NNW 6.9 mph - N/A   Overcast
11:55 PM 23.0 °F 14.7 °F 17.6 °F 80% 30.27 in 10.0 mi NW 6.9 mph - N/A   Overcast
11:56 PM 23.0 °F 14.7 °F 17.6 °F 80% 30.27 in 10.0 mi NW 6.9 mph - N/A   Overcast